This is the latest recevied weather packets stored in our database for station/object KG4AGD. If no packets are shown the sender has not sent any weather packets the latest 10 day(s).
| Time | Temp. | Humidity | Pressure | Rain* | Wind** | Luminosity | Snow |
|---|---|---|---|---|---|---|---|
| 1777853628 | 13.89° C | 67% | 1017.6 hPa | 0.25 mm | - | - | - |
| 1777853325 | 14.44° C | 66% | 1017.6 hPa | 0.25 mm | - | - | - |
| 1777853023 | 15° C | 66% | 1017.2 hPa | 0.25 mm | - | - | - |
| 1777852721 | 15.56° C | 64% | 1017.2 hPa | 0.25 mm | - | - | - |
| 1777852419 | 16.11° C | 60% | 1017.2 hPa | 0.25 mm | - | - | - |
| 1777852116 | 16.67° C | 61% | 1017.2 hPa | 0.25 mm | - | - | - |
| 1777851814 | 17.22° C | 61% | 1017.6 hPa | 0.25 mm | - | - | - |
| 1777851512 | 17.78° C | 54% | 1017.2 hPa | 0.25 mm | - | - | - |
| 1777851210 | 18.33° C | 49% | 1017.2 hPa | 0.25 mm | - | - | - |
| 1777850908 | 18.33° C | 39% | 1017.2 hPa | 0.25 mm | - | - | - |
| 1777850606 | 18.89° C | 39% | 1017.2 hPa | 0.25 mm | - | - | - |
| 1777850304 | 18.89° C | 40% | 1017.2 hPa | 0.25 mm | - | - | - |
| 1777850002 | 18.89° C | 37% | 1017.2 hPa | 0.25 mm | - | - | - |
| 1777849699 | 18.89° C | 36% | 1017.2 hPa | 0.25 mm | - | - | - |
| 1777849397 | 19.44° C | 35% | 1017.2 hPa | 0.25 mm | - | - | - |
| 1777849095 | 18.89° C | 35% | 1017.2 hPa | 0.25 mm | - | - | - |
| 1777848793 | 19.44° C | 36% | 1017.6 hPa | 0.25 mm | - | - | - |
| 1777848490 | 19.44° C | 35% | 1017.2 hPa | 0.25 mm | - | - | - |
| 1777848188 | 19.44° C | 37% | 1017.2 hPa | 0.25 mm | - | - | - |
| 1777847886 | 19.44° C | 33% | 1017.2 hPa | 0.25 mm | - | - | - |
| 1777847584 | 20° C | 35% | 1017.2 hPa | 0.25 mm | - | - | - |
| 1777847282 | 20° C | 33% | 1017.2 hPa | 0.25 mm | - | - | - |
| 1777846979 | 20° C | 34% | 1017.2 hPa | 0.25 mm | - | - | - |
| 1777846677 | 20° C | 33% | 1017.2 hPa | 0.25 mm | - | - | - |
| 1777846375 | 20° C | 33% | 1017.2 hPa | 0.25 mm | - | - | - |
* Rain since midnight (hover to see other rain measurements)
** Current wind speed in m/s (hover to see current wind gust speed)